User: anonymous   Login
Location: Tamazert
(32.6352°N, 5.2072°W)
Time: 14:30:08
(UTC+00:00)
Language:

Vanguard 2 Rocket - Orbit

View from above orbital plane
View from above orbital plane
View from above satellite
View from above satellite

Ground track
Ground track

The orbit data is extracted from the following two-line orbital elements,

1 00012U 59001B   22275.36732797  .00000261  00000-0  14606-3 0  9999
2 00012  32.9001 302.0403 1664993 157.1078 211.3358 11.44698247375878
Epoch (UTC): 02 October 2022 08:48:57
Eccentricity: 0.1664993
inclination: 32.9001°
perigee height: 553 km
apogee height: 3323 km
right ascension of ascending node: 302.0403°
argument of perigee: 157.1078°
revolutions per day: 11.44698247
mean anomaly at epoch: 211.3358°
orbit number at epoch: 37587

The dashed part of the orbit path shows where the satellite is in the earth's shadow,  

DLR